Location: St. Louis
(38.6270°N, 90.1994°W)
Time: 20:17:14
(UTC-06:00)

A-11 Canister half - Pass Details

Date: 04 December 2021
Orbit: 1524 x 1684 km, 47.3° (Epoch: 26 January)

Event Time Altitude Azimuth Distance (km) Brightness Sun altitude
Exits shadow 03:16:42 49° 29° (NNE) 2,068 9.6 -43.4°
Drops below altitude 10° 03:24:09 10° 65° (ENE) 3,880 11.7 -42.0°
Sets 03:27:21 0° 69° (ENE) 4,847 12.4 -41.4°
